Home   Weather   Leer   Past weeks

Flag for Germany Past Weather in Leer, Lower Saxony, Germany — Yesterday and Last 2 Weeks

Now
71 °F

Overcast.


Feels Like: 77 °F
Forecast: 56 / 69 °F
Wind: 2 mph from South

Location: Emden-Koenigspolder

Current Time: Aug 16, 2017 at 5:19:54 pm

Latest Report: Aug 16, 2017 at 4:00 pm


Visibility: 12 mi

Pressure: 30.15 "Hg

Humidity: 49%

Dew Point: 51 °F

Location of LeerLocation

Past Weather in Leer — Graph

°F

Leer Temperature Yesterday

Maximum temperature yesterday: 76 °F (at 1:00 pm)
Minimum temperature yesterday: 56 °F (at 6:00 am)
Average temperature yesterday: 66 °F

High & Low Weather Summary for the Past Weeks

 TemperatureHumidityPressure
High76 °F (Aug 15, 1:00 pm)100% (Aug 14, 3:00 am)30.22 "Hg (Aug 14, 3:00 am)
Low46 °F (Aug 14, 6:00 am)47% (Aug 16, 3:00 pm)29.70 "Hg (Aug 3, 12:00 pm)
Average63 °F77%29.99 "Hg
* Reported Aug 1 4:00 pm — Aug 16 4:00 pm, Leer. Weather by CustomWeather, © 2017

Note: Actual official high and low records may vary slightly from our data, if they occured in-between our weather recording intervals... More about our weather records

Advertising

Leer Weather History for the Previous 24 Hours

Scroll right to see more
 ConditionsComfort  
Time TempWeatherWind HumidityBarometerVisibility
4:00 pm
Wed, Aug 16
71 °FOvercast.2 mph49%30.15 "Hg12 mi
3:00 pm72 °FOvercast.2 mph47%30.16 "Hg16 mi
1:00 pm71 °FPartly sunny.1 mph52%30.16 "Hg18 mi
12:00 pm69 °FPassing clouds.3 mph62%30.17 "Hg12 mi
10:00 am66 °FPassing clouds.2 mph77%30.15 "Hg9 mi
9:00 am64 °FSunny.2 mph84%30.14 "Hg7 mi
7:00 am57 °FSunny.1 mph96%30.11 "Hg3 mi
6:00 am56 °FFog.1 mph97%30.09 "Hg4 mi
4:00 am59 °FFog.2 mph96%30.07 "Hg2 mi
3:00 am60 °FFog.2 mph96%30.05 "Hg2 mi
1:00 am61 °FOvercast.2 mph92%30.03 "Hg5 mi
12:00 am63 °FOvercast.2 mph91%30.02 "Hg3 mi
10:00 pm
Tue, Aug 15
65 °FOvercast.2 mph89%29.98 "Hg4 mi
9:00 pm66 °FOvercast.1 mph89%29.97 "Hg4 mi
7:00 pm68 °FOvercast.5 mph80%29.94 "Hg7 mi
6:00 pm72 °FOvercast.2 mph66%29.94 "Hg14 mi
Weather by CustomWeather, © 2017

See weather overviewHow to use our weather pages